FW7275 Weather Reports


Display with metric or nautical units.
time (UTC)temp
F
wind
direction
speed
MPH
gust
MPH
rain 1hr
in
rain 24hr
in
rain mn
in
humidity
%
barometer
mb
20260905062020 59 0 0.0 0.0 0.01 0.00 0.06 86
20260905061027 59 0 0.0 0.0 0.02 0.00 0.06 85
20260905060036 59 0 0.0 0.0 0.02 0.00 0.05 84
20260905055030 59 0 0.0 0.0 0.05 0.00 0.05 84
20260905054029 59 0 0.0 0.0 0.05 0.00 0.05 83
20260905053024 60 0 0.0 0.0 0.05 0.00 0.05 81
20260905052021 60 0 0.0 0.0 0.05 0.00 0.05 79
20260905051022 63 0 0.0 0.0 0.04 0.00 0.04 73
20260905050031 66 0 0.0 0.0 0.03 0.00 0.03 62
20260905045020 66 0 0.0 0.0 0.00 0.00 0.00 62
20260905044021 66 0 0.0 0.0 0.00 0.00 0.00 62
20260905043031 66 0 0.0 0.0 0.00 0.00 0.00 62
20260905042027 67 0 0.0 0.0 0.00 0.00 0.00 63
20260905041033 67 0 0.0 0.0 0.00 0.00 0.00 65
20260905040038 67 0 0.0 0.0 0.00 0.00 0.00 66
20260905035024 68 0 0.0 0.0 0.00 0.00 0.00 66
20260905034032 69 0 0.0 0.0 0.00 0.00 0.00 67
20260905033024 70 0 0.0 0.0 0.00 0.00 0.00 67
20260905032034 71 0 0.0 0.0 0.00 0.00 0.00 68
20260905030037 71 0 0.0 0.0 0.00 0.00 0.00 69
20260905025030 71 0 0.0 0.0 0.00 0.00 0.00 69
20260905024033 71 0 0.0 0.0 0.00 0.00 0.00 69
20260905023032 71 0 0.0 0.0 0.00 0.00 0.00 68
20260905022026 71 0 0.0 0.0 0.00 0.00 0.00 67
20260905021025 72 0 0.0 0.0 0.00 0.00 0.00 64
20260905015021 72 0 0.0 0.0 0.00 0.00 0.00 63
20260905014022 72 0 0.0 0.0 0.00 0.00 0.00 63
20260905013036 72 0 0.0 0.0 0.00 0.00 0.00 62
20260905010037 75 0 0.0 0.0 0.00 0.00 0.00 57
20260905005027 75 0 0.0 0.0 0.00 0.00 0.00 57
20260905003022 75 0 0.0 0.0 0.00 0.00 0.00 56
20260905002021 76 0 0.0 0.0 0.00 0.00 0.00 55
20260904235021 77 0 0.0 0.0 0.00 0.00 0.00 54
20260904234034 77 0 0.0 0.0 0.00 0.00 0.00 53
20260904233029 77 0 0.0 0.0 0.00 0.00 0.00 52
20260904232028 78 0 0.0 0.0 0.00 0.00 0.00 52
20260904231029 78 0 0.0 0.0 0.00 0.00 0.00 52
20260904230037 77 0 0.0 0.0 0.00 0.00 0.00 51
20260904225024 77 0 0.0 0.0 0.00 0.00 0.00 51
20260904224027 77 0 0.0 0.0 0.00 0.00 0.00 50
20260904223035 78 0 0.0 0.0 0.00 0.00 0.00 50
20260904221025 78 0 0.0 0.0 0.00 0.00 0.00 49
20260904220031 78 0 0.0 0.0 0.00 0.00 0.00 49
20260904215025 78 0 0.0 0.0 0.00 0.00 0.00 48
20260904214019 78 0 0.0 0.0 0.00 0.00 0.00 48
20260904213031 78 0 0.0 0.0 0.00 0.00 0.00 48
20260904212022 78 0 0.0 0.0 0.00 0.00 0.00 48
20260904211034 78 0 0.0 0.0 0.00 0.00 0.00 48
20260904210036 78 0 0.0 0.0 0.00 0.00 0.00 47
20260904205023 78 0 0.0 0.0 0.00 0.00 0.00 48
20260904204027 78 0 0.0 0.0 0.00 0.00 0.00 48
20260904203036 78 0 0.0 0.0 0.00 0.00 0.00 48
20260904202030 78 0 0.0 0.0 0.00 0.00 0.00 48
20260904201026 76 0 0.0 0.0 0.00 0.00 0.00 50
20260904200028 76 0 0.0 0.0 0.00 0.00 0.00 50
20260904195020 76 0 0.0 0.0 0.00 0.00 0.00 50
20260904193031 76 0 0.0 0.0 0.00 0.00 0.00 49
20260904192029 76 0 0.0 0.0 0.00 0.00 0.00 49
20260904191024 75 0 0.0 0.0 0.00 0.00 0.00 50
20260904190033 76 0 0.0 0.0 0.00 0.00 0.00 49
20260904185025 77 0 0.0 0.0 0.00 0.00 0.00 48
20260904183024 78 0 0.0 0.0 0.00 0.00 0.00 46
20260904182024 78 0 0.0 0.0 0.00 0.00 0.00 46
20260904181018 80 0 0.0 0.0 0.00 0.00 0.00 43
20260904180032 81 0 0.0 0.0 0.00 0.00 0.00 43
20260904175028 82 0 0.0 0.0 0.00 0.00 0.00 41
20260904174019 83 0 0.0 0.0 0.00 0.00 0.00 40
20260904173036 84 0 0.0 0.0 0.00 0.00 0.00 39
20260904172020 85 0 0.0 0.0 0.00 0.00 0.00 38
20260904171034 86 0 0.0 0.0 0.00 0.00 0.00 38
20260904170036 88 0 0.0 0.0 0.00 0.00 0.00 36
20260904165029 88 0 0.0 0.0 0.00 0.00 0.00 36
20260904164031 89 0 0.0 0.0 0.00 0.00 0.00 35
20260904162028 90 0 0.0 0.0 0.00 0.00 0.00 34
20260904161025 91 0 0.0 0.0 0.00 0.00 0.00 33
20260904160034 91 0 0.0 0.0 0.00 0.00 0.00 33
20260904155034 91 0 0.0 0.0 0.00 0.00 0.00 33
20260904153034 90 0 0.0 0.0 0.00 0.00 0.00 32
20260904152034 90 0 0.0 0.0 0.00 0.00 0.00 32
20260904151024 91 0 0.0 0.0 0.00 0.00 0.00 32
20260904145033 92 0 0.0 0.0 0.00 0.00 0.00 36
20260904144024 92 0 0.0 0.0 0.00 0.00 0.00 36
20260904143027 92 0 0.0 0.0 0.00 0.00 0.00 35
20260904142033 92 0 0.0 0.0 0.00 0.00 0.00 35
20260904141028 92 0 0.0 0.0 0.00 0.00 0.00 35
20260904140035 92 0 0.0 0.0 0.00 0.00 0.00 35
20260904135026 92 0 0.0 0.0 0.00 0.00 0.00 35
20260904134028 92 0 0.0 0.0 0.00 0.00 0.00 36
20260904133034 92 0 0.0 0.0 0.00 0.00 0.00 37
20260904132034 92 0 0.0 0.0 0.00 0.00 0.00 36
20260904130032 91 0 0.0 0.0 0.00 0.00 0.00 36
20260904124019 90 0 0.0 0.0 0.00 0.00 0.00 37
20260904123033 90 0 0.0 0.0 0.00 0.00 0.00 37
20260904121033 89 0 0.0 0.0 0.00 0.00 0.00 38
20260904120124 89 0 0.0 0.0 0.00 0.00 0.00 39
20260904115032 89 0 0.0 0.0 0.00 0.00 0.00 40
20260904114026 89 0 0.0 0.0 0.00 0.00 0.00 40
20260904113028 88 0 0.0 0.0 0.00 0.00 0.00 41
20260904112030 88 0 0.0 0.0 0.00 0.00 0.00 41
20260904111023 87 0 0.0 0.0 0.00 0.00 0.00 41
20260904105021 86 0 0.0 0.0 0.00 0.00 0.00 42
20260904104021 86 0 0.0 0.0 0.00 0.00 0.00 43
20260904103025 85 0 0.0 0.0 0.00 0.00 0.00 43
20260904102031 86 0 0.0 0.0 0.00 0.00 0.00 43
20260904101022 86 0 0.0 0.0 0.00 0.00 0.00 43
20260904100030 85 0 0.0 0.0 0.00 0.00 0.00 44
20260904095025 84 0 0.0 0.0 0.00 0.00 0.00 44
20260904093028 84 0 0.0 0.0 0.00 0.00 0.00 45
20260904092026 84 0 0.0 0.0 0.00 0.00 0.00 46
20260904091021 83 0 0.0 0.0 0.00 0.00 0.00 46
20260904090031 83 0 0.0 0.0 0.00 0.00 0.00 47
20260904085020 83 0 0.0 0.0 0.00 0.00 0.00 46
20260904084027 83 0 0.0 0.0 0.00 0.00 0.00 47
20260904082029 81 0 0.0 0.0 0.00 0.00 0.00 49
20260904081033 81 0 0.0 0.0 0.00 0.00 0.00 51
20260904080026 80 0 0.0 0.0 0.00 0.00 0.00 53
20260904075030 79 0 0.0 0.0 0.00 0.00 0.00 54
20260904074034 79 0 0.0 0.0 0.00 0.00 0.00 55
20260904073036 78 0 0.0 0.0 0.00 0.00 0.00 57
20260904071025 76 0 0.0 0.0 0.00 0.00 0.00 59
20260904070030 76 0 0.0 0.0 0.00 0.00 0.00 59
20260904065028 75 0 0.0 0.0 0.00 0.00 0.00 59
20260904064018 74 0 0.0 0.0 0.00 0.00 0.00 61
20260904063029 74 0 0.0 0.0 0.00 0.00 0.00 61